Retour au catalogue

COSMOS 1275 DEB

ActifPO
NORAD 12707·DEBRIS·🇷🇺 Russia

Lancé Jun 4, 1981 depuis Plesetsk Cosmodrome

Loading…

Prochains Passages (prochaines 24 heures)

TLE

FraisSource: Space-Track

Époque: Sep 14, 2026, 12:22 UTC

1 12707U 81053BB  26257.51560510  .00000257  00000-0  31022-3 0  9994
2 12707  83.0140 326.4226 0128686 246.9891 176.2985 13.59852077231078

Suivez COSMOS 1275 DEB en temps réel avec AllMySat

Download on the App Store